User: anonymous   Login
Location: Unspecified
(0.0000°N, 0.0000°E)
Time: 20:36:09
(UTC+00:00)
Language:

APRIZESAT 6 - Orbit

View from above orbital plane
View from above orbital plane
View from above satellite
View from above satellite

Ground track
Ground track

The orbit data is extracted from the following two-line orbital elements,

1 37793U 11044F   23084.54793177  .00001802  00000-0  28316-3 0  9993
2 37793  98.3668 310.6687 0045076 244.2497 175.4433 14.73254265623395
Epoch (UTC): 25 March 2023 13:09:01
Eccentricity: 0.0045076
inclination: 98.3668°
perigee height: 619 km
apogee height: 682 km
right ascension of ascending node: 310.6687°
argument of perigee: 244.2497°
revolutions per day: 14.73254265
mean anomaly at epoch: 175.4433°
orbit number at epoch: 62339

The dashed part of the orbit path shows where the satellite is in the earth's shadow,  

DLR